Waarnemingen

Advertentie
Mijn weer
Angelholm, Zweden (2607): temperatuur & dauwpunt: 16.07.2018 18:00:00 - 22.07.2018 18:00:00 (CEST)Angelholm, Zweden (2607): windsnelheid: 16.07.2018 18:00:00 - 22.07.2018 18:00:00 (CEST)Angelholm, Zweden (2607): windrichting: 16.07.2018 18:00:00 - 22.07.2018 18:00:00 (CEST)Angelholm, Zweden (2607): luchtdruk: 16.07.2018 18:00:00 - 22.07.2018 18:00:00 (CEST)Angelholm, Zweden (2607): zicht: 16.07.2018 18:00:00 - 22.07.2018 18:00:00 (CEST)
Datum & Tijd tt [°C] td [°C] ff [km/u] ff [kn] dd ppp [hPa] vv [km]
22.07.2018 18:00:00 22,9 11,9 13 7 W 1011,9 10
22.07.2018 17:00:00 22,1 10,9 16 9 W 1012,0 10
22.07.2018 16:00:00 22,0 12,0 18 10 WNW - 10
22.07.2018 15:00:00 - - - - - - -
22.07.2018 14:00:00 22,0 13,0 16 9 W - 10
22.07.2018 13:00:00 21,0 13,0 16 9 WNW - 10
22.07.2018 12:00:00 21,0 14,0 16 9 WNW - 10
22.07.2018 11:00:00 21,0 14,0 16 9 WNW - 10
22.07.2018 10:00:00 - - - - - - -
22.07.2018 09:00:00 20,2 13,6 13 7 W 1011,5 10
22.07.2018 08:00:00 18,7 12,2 2 1 - 1011,4 10
22.07.2018 07:00:00 15,8 11,6 2 1 ZO 1011,2 10
22.07.2018 06:00:00 12,6 10,8 0 0 N 1011,2 10
22.07.2018 05:00:00 11,7 10,3 0 0 N 1011,2 10
22.07.2018 04:00:00 12,2 10,6 4 2 O 1011,3 10
22.07.2018 03:00:00 12,5 11,1 0 0 N 1011,4 10
22.07.2018 02:00:00 12,7 10,8 0 0 N 1011,6 10
22.07.2018 01:00:00 13,6 11,1 5 3 ZO 1011,6 10
22.07.2018 00:00:00 14,7 11,3 0 0 N 1011,5 10
21.07.2018 23:00:00 15,7 11,5 4 2 O 1011,6 10
21.07.2018 22:00:00 19,3 12,6 4 2 W 1011,2 10
21.07.2018 21:00:00 19,6 11,9 9 5 NW 1011,2 10
21.07.2018 20:00:00 21,5 11,2 15 8 WNW 1011,6 10
21.07.2018 19:00:00 22,5 10,6 13 7 W 1011,7 10
21.07.2018 18:00:00 22,8 10,6 15 8 W 1011,8 10
21.07.2018 17:00:00 22,2 11,9 16 9 W 1012,0 10
21.07.2018 16:00:00 22,4 10,2 21 11 WNW 1012,1 10
21.07.2018 15:00:00 22,4 9,5 18 10 W 1012,2 10
21.07.2018 14:00:00 22,0 11,1 18 10 W 1012,5 10
21.07.2018 13:00:00 21,9 11,0 18 10 W 1012,8 10
21.07.2018 12:00:00 21,9 11,0 18 10 W 1012,8 10
21.07.2018 11:00:00 21,2 12,1 18 10 W 1012,8 10
21.07.2018 10:00:00 20,6 12,6 16 9 WNW 1012,7 10
21.07.2018 09:00:00 20,1 13,3 22 12 W 1012,5 10
21.07.2018 08:00:00 19,5 13,4 21 11 WNW 1012,3 10
21.07.2018 07:00:00 16,7 12,4 0 0 N 1012,1 10
21.07.2018 06:00:00 12,3 10,0 4 2 WNW 1012,2 10
21.07.2018 05:00:00 11,4 9,8 0 0 N 1012,2 10
21.07.2018 04:00:00 13,2 10,0 5 3 WNW 1012,3 10
21.07.2018 03:00:00 12,9 10,4 5 3 NNW 1012,4 10
21.07.2018 02:00:00 15,0 12,0 8 4 WNW 1012,6 10
21.07.2018 01:00:00 15,3 12,6 8 4 WNW 1012,5 10
21.07.2018 00:00:00 15,0 12,1 11 6 WNW 1012,5 10
20.07.2018 23:00:00 16,0 12,4 9 5 NW 1012,5 10
20.07.2018 22:00:00 16,7 12,4 13 7 NW 1012,7 10
20.07.2018 21:00:00 19,6 12,8 22 12 NW 1012,4 10
20.07.2018 20:00:00 20,7 12,7 24 13 NW 1012,4 10
20.07.2018 19:00:00 21,3 12,4 28 15 W 1012,1 10
20.07.2018 18:00:00 21,8 12,6 24 13 WNW 1012,4 10
20.07.2018 17:00:00 21,6 12,4 22 12 W 1012,4 10
20.07.2018 16:00:00 20,7 12,1 22 12 W 1013,1 10
20.07.2018 15:00:00 20,7 11,9 21 11 W 1013,3 10
20.07.2018 14:00:00 19,9 11,9 16 9 W 1013,6 10
20.07.2018 13:00:00 19,5 11,8 18 10 W 1013,9 10
20.07.2018 12:00:00 19,0 12,0 16 9 W 1013,8 10
20.07.2018 11:00:00 18,7 11,8 16 9 W 1014,1 10
20.07.2018 10:00:00 18,4 11,7 18 10 W 1014,1 10
20.07.2018 09:00:00 18,1 11,4 16 9 W 1014,1 10
20.07.2018 08:00:00 18,0 12,7 16 9 W 1014,2 10
20.07.2018 07:00:00 16,5 13,4 8 4 WNW 1014,1 10
20.07.2018 06:00:00 14,4 12,3 9 5 W 1014,3 10
20.07.2018 05:00:00 13,2 11,3 9 5 NNW 1014,4 10
20.07.2018 04:00:00 13,3 11,4 9 5 WNW 1014,5 10
20.07.2018 03:00:00 14,2 11,7 13 7 NW 1014,7 10
20.07.2018 02:00:00 14,3 11,3 11 6 NW 1014,9 10
20.07.2018 01:00:00 15,7 11,9 9 5 NW 1015,2 10
20.07.2018 00:00:00 15,6 11,8 8 4 WNW 1015,3 10
19.07.2018 23:00:00 16,6 12,6 9 5 WNW 1015,4 10
19.07.2018 22:00:00 17,2 12,5 13 7 WNW 1015,5 10
19.07.2018 21:00:00 19,5 12,7 18 10 W 1015,3 10
19.07.2018 20:00:00 20,2 12,4 21 11 W 1015,2 10
19.07.2018 19:00:00 20,9 12,3 24 13 W 1015,4 10
19.07.2018 18:00:00 21,1 12,0 26 14 W 1015,4 10
19.07.2018 17:00:00 21,9 9,4 24 13 WNW 1015,8 10
19.07.2018 16:00:00 21,6 10,1 28 15 WNW 1016,0 10
19.07.2018 15:00:00 21,4 12,5 29 16 WNW 1016,2 10
19.07.2018 14:00:00 21,7 14,1 28 15 W 1016,2 10
19.07.2018 13:00:00 21,6 14,0 26 14 W 1016,3 10
19.07.2018 12:00:00 21,1 13,5 24 13 WNW 1016,2 10
19.07.2018 11:00:00 21,1 13,3 24 13 WNW 1016,2 10
19.07.2018 10:00:00 20,2 13,2 22 12 NW 1016,3 10
19.07.2018 09:00:00 19,9 13,8 24 13 NW 1016,3 10
19.07.2018 08:00:00 19,0 14,0 24 13 NW 1016,2 10
19.07.2018 07:00:00 18,2 14,1 25 14 NW 1015,9 35
19.07.2018 06:00:00 17,6 14,3 16 9 WNW 1015,9 10
19.07.2018 05:00:00 17,9 15,0 18 10 WNW 1015,7 10
19.07.2018 04:00:00 18,3 15,5 18 10 NW 1015,7 10
19.07.2018 03:00:00 18,7 15,9 18 10 WNW 1015,8 10
19.07.2018 02:00:00 18,8 16,0 22 12 NW 1016,0 10
19.07.2018 01:00:00 19,3 16,0 24 13 NW 1015,9 10
19.07.2018 00:00:00 19,6 16,4 28 15 NW 1015,3 10
18.07.2018 23:00:00 20,1 17,1 26 14 NW 1015,0 10
18.07.2018 22:00:00 20,6 17,2 18 10 NW 1014,8 10
18.07.2018 21:00:00 22,1 16,4 15 8 NW 1014,3 10
18.07.2018 20:00:00 22,1 16,8 18 10 NW 1014,1 10
18.07.2018 19:00:00 22,1 18,1 21 11 NW 1014,1 10
18.07.2018 18:00:00 24,3 14,4 8 4 NNW 1013,9 10
18.07.2018 17:00:00 23,3 16,1 8 4 N 1013,7 10
18.07.2018 16:00:00 22,9 15,9 8 4 N 1013,6 10
18.07.2018 15:00:00 22,2 16,2 15 8 NW 1013,9 10
18.07.2018 14:00:00 22,8 16,1 16 9 WNW 1013,6 10
18.07.2018 13:00:00 22,2 18,0 16 9 W 1013,6 10
18.07.2018 12:00:00 21,3 18,1 15 8 WNW 1013,4 10
18.07.2018 11:00:00 21,3 18,9 9 5 WZW 1013,1 10
18.07.2018 10:00:00 20,7 18,3 4 2 - 1012,9 10
18.07.2018 09:00:00 19,6 18,3 5 3 NW 1013,0 10
18.07.2018 08:00:00 19,5 18,2 4 2 ONO 1012,8 10
18.07.2018 07:00:00 19,0 17,8 9 5 W 1012,5 10
18.07.2018 06:00:00 18,7 17,4 5 3 NW 1012,4 10
18.07.2018 05:00:00 18,7 17,0 11 6 WNW 1012,3 10
18.07.2018 04:00:00 18,5 16,7 9 5 NW 1012,1 10
18.07.2018 03:00:00 18,4 16,2 9 5 WNW 1012,3 10
18.07.2018 02:00:00 18,3 15,7 5 3 W 1012,7 10
18.07.2018 01:00:00 17,8 15,4 5 3 NW 1012,6 10
18.07.2018 00:00:00 18,5 15,7 8 4 NW 1013,0 10
17.07.2018 23:00:00 18,0 14,7 8 4 NW 1013,0 6
17.07.2018 22:00:00 20,5 14,8 4 2 W 1013,2 10
17.07.2018 21:00:00 21,0 15,5 4 2 - 1012,8 10
17.07.2018 20:00:00 21,6 16,8 9 5 N 1012,6 10
17.07.2018 19:00:00 22,4 16,7 15 8 NNW 1012,6 10
17.07.2018 18:00:00 21,9 16,4 15 8 NNW 1013,0 10
17.07.2018 17:00:00 23,6 16,9 15 8 W 1012,5 10
17.07.2018 16:00:00 23,8 17,1 13 7 WZW 1012,6 10
17.07.2018 15:00:00 24,7 16,9 15 8 WZW 1012,7 10
17.07.2018 14:00:00 24,9 14,7 15 8 WZW 1012,7 10
17.07.2018 13:00:00 27,4 12,2 11 6 ZW 1012,5 10
17.07.2018 12:00:00 27,3 11,7 9 5 OZO 1012,8 10
17.07.2018 11:00:00 26,3 11,2 5 3 O 1012,7 10
17.07.2018 10:00:00 25,5 11,3 5 3 OZO 1012,7 10
17.07.2018 09:00:00 24,5 12,1 5 3 ZO 1012,9 10
17.07.2018 08:00:00 20,9 14,5 5 3 O 1013,0 10
17.07.2018 07:00:00 18,0 15,0 0 0 N - 10
17.07.2018 06:00:00 - - - - - - -
17.07.2018 05:00:00 - - - - - - -
17.07.2018 04:00:00 17,1 13,8 0 0 N 1012,9 10
17.07.2018 03:00:00 16,8 14,1 5 3 ZO 1013,3 10
17.07.2018 02:00:00 17,3 13,6 0 0 N 1013,5 10
17.07.2018 01:00:00 16,7 13,4 5 3 OZO 1013,6 10
17.07.2018 00:00:00 18,6 16,8 0 0 N 1013,8 10
16.07.2018 23:00:00 20,0 16,2 9 5 WZW 1013,8 10
16.07.2018 22:00:00 21,7 15,8 5 3 W 1013,8 10
16.07.2018 21:00:00 23,7 12,7 11 6 NW 1013,7 10
16.07.2018 20:00:00 25,4 12,6 15 8 NNW 1013,4 10
16.07.2018 19:00:00 26,2 13,7 18 10 WNW 1013,2 10
16.07.2018 18:00:00 25,9 13,7 21 11 WNW 1013,2 10

tt = temperatuur
td = dauwpunt
ff = windsnelheid
dd = windrichting
ppp = luchtdruk
vv = zicht

Weerstations in de omgeving